This demonstration page uses our WeatherBlox Daily Observations layout. Learn more.

Left ArrowRight Arrow

Hourly Observations for June 25, 2015

Temp ( °F °C ) Dew Point ( °F °C ) Humidity (%) Winds ( mph kmh ) Pressure ( in mb ) Visibility ( mi km ) Precip ( " mm )
12:51 am 00:51 Clear 77 25 60 15.6 56 56 E 9 15 29.84 1011 10 16 0.00 0.00
1:51 am 01:51 Clear 77 25 58 14.4 52 52 E 9 15 29.83 1010 10 16 0.00 0.00
2:51 am 02:51 Clear 73 22.8 59 15 62 62 ESE 5 7 29.83 1010 10 16 0.00 0.00
3:51 am 03:51 Clear 69 20.6 60 15.6 73 73 NW 6 9 29.83 1010 10 16 0.00 0.00
4:51 am 04:51 Clear 70 21.1 58 14.4 66 66 NW 7 11 29.89 1012 10 16 0.00 0.00
5:51 am 05:51 Sunny 72 22.2 60 15.6 66 66 Calm 29.91 1013 10 16 0.00 0.00
6:51 am 06:51 Sunny 78 25.6 58 14.4 50 50 Calm 29.90 1013 10 16 0.00 0.00
7:51 am 07:51 Sunny 83 28.3 56 13.3 40 40 ESE 10 17 29.92 1013 10 16 0.00 0.00
8:51 am 08:51 Sunny 87 30.6 57 13.9 36 36 ESE 9 15 29.91 1013 10 16 0.00 0.00
9:51 am 09:51 Sunny 89 31.7 56 13.3 33 33 ESE 7 11 29.90 1013 10 16 0.00 0.00
10:51 am 10:51 Cloudy 92 33.3 58 14.4 32 32 E 7 11 29.88 1012 10 16 0.00 0.00
11:51 am 11:51 Sunny 95 35 57 13.9 28 28 W 6 9 29.85 1011 10 16 0.00 0.00
12:51 pm 12:51 Sunny 97 36.1 56 13.3 25 25 NNE 5 7 29.81 1010 10 16 0.00 0.00
1:51 pm 13:51 Sunny 100 37.8 54 12.2 21 21 Calm 29.77 1008 10 16 0.00 0.00
2:51 pm 14:51 Sunny 100 37.8 51 10.6 19 19 S 8 13 29.75 1007 10 16 0.00 0.00
3:04 pm 15:04 Sunny with Nearby Thunderstorms 100 37.8 53 11.7 21 21 ESE 20 31 29.65 1004 10 16 0.00 0.00
3:12 pm 15:12 Sunny with Thunderstorms 101 38.3 50 10 18 18 ESE 20 31 29.65 1004 10 16 0.00 0.00
3:27 pm 15:27 Partly Cloudy with Nearby Thunderstorms 99 37.2 49 9.4 18 18 NE 14 22 29.65 1004 10 16 0.00 0.00
3:34 pm 15:34 Partly Cloudy with Thunderstorms 96 35.6 53 11.7 23 23 NNE 22 35 29.65 1004 10 16 0.00 0.00
3:51 pm 15:51 Partly Cloudy with Thunderstorms 94 34.4 55 12.8 27 27 N 23 37 29.78 1009 10 16 0.00 0.00
4:22 pm 16:22 Partly Cloudy 93 33.9 52 11.1 25 25 N 8 13 29.68 1005 10 16 0.00 0.03
4:51 pm 16:51 Sunny 95 35 49 9.4 21 21 Calm 29.75 1008 10 16 0.00 0.03
5:51 pm 17:51 Sunny 94 34.4 53 11.7 25 25 SE 9 15 29.74 1007 10 16 0.00 0.00
6:51 pm 18:51 Sunny 93 33.9 51 10.6 24 24 SSE 9 15 29.75 1007 10 16 0.00 0.00
7:51 pm 19:51 Clear 92 33.3 53 11.7 27 27 SSE 6 9 29.74 1007 10 16 0.00 0.00
8:51 pm 20:51 Clear 89 31.7 55 12.8 31 31 SE 7 11 29.77 1008 10 16 0.00 0.00
9:51 pm 21:51 Clear 88 31.1 56 13.3 34 34 E 7 11 29.78 1009 10 16 0.00 0.00
10:18 pm 22:18 Partly Cloudy with Thunderstorms 88 31.1 55 12.8 33 33 E 14 22 29.74 1007 10 16 0.00 0.00
10:33 pm 22:33 Partly Cloudy with Light Rain 81 27 63 17 54 54 NE 3 6 29.80 1009 8 13 0.00 0.00
10:51 pm 22:51 Mostly Cloudy 80 26.7 69 20.6 69 69 ENE 7 11 29.81 1010 10 16 0.05 1.27
11:51 pm 23:51 Mostly Clear 81 27.2 61 16.1 51 51 E 10 17 29.80 1009 10 16 0.00 0.03

Powered by AerisWeather